Regional Weather Roundup
Issued by NWS

Home | Current Version | Previous Version | Graphics & Text | Print | Product List | Glossary On
Versions: 1 2 3 4 5 6 7 8 9 10 11 12 13 14 15 16 17 18 19 20 21 22 23 24 25 26 27 28 29 30 31 32 33 34 35 36 37 38 39 40 41 42 43 44 45 46 47 48 49 50
191
ASUS45 KBOU 160407
RWRCO

WEATHER ROUNDUP FOR COLORADO
NATIONAL WEATHER SERVICE DENVER/BOULDER CO
1000 PM MDT TUE AUG 15 2017

NOTE: "FAIR" INDICATES FEW OR NO CLOUDS BELOW 12000 FEET WITH NO
SIGNIFICANT WEATHER AND/OR OBSTRUCTIONS TO VISIBILITY.

COZ001>005-013-030-031-160500-
...NORTHWEST COLORADO...

CITY           SKY/WX    TMP DP  RH WIND       PRES   REMARKS
CRAIG          CLOUDY    54  47  77 S14       30.11F
HAYDEN         CLOUDY    52  48  87 E6        30.18R
MEEKER         FAIR      54  49  83 CALM      30.16R
RABBIT EARS PA CLOUDY    37  37 100 W6        30.35S
STEAMBOAT SPGS MOCLDY    51  48  90 E5        30.17S
WALDEN         CLOUDY    45  39  81 SE6       30.23S
$$

COZ006>008-011-160500-
...WEST CENTRAL VALLEYS...

CITY           SKY/WX    TMP DP  RH WIND       PRES   REMARKS
GRAND JUNCTION CLOUDY    73  39  29 NW10      29.99R
MONTROSE       FAIR      67  34  29 S10       30.07R
EAGLE          FAIR      61  43  51 E10       30.15R
RIFLE          FAIR      65  44  46 N8        30.06R
DELTA          NOT AVBL
NUCLA          FAIR      64  28  25 S5        30.12R
$$

COZ017>023-064>068-160500-
...SOUTHWEST COLORADO...

CITY           SKY/WX    TMP DP  RH WIND       PRES   REMARKS
DURANGO        FAIR      62  29  28 NW9       30.14R
CORTEZ         MOCLDY    62  37  39 N3        30.09R
PAGOSA SPRINGS FAIR      61  26  26 SW3       30.20R
TELLURIDE      NOT AVBL
WOLF CREEK PAS FAIR      39  27  60 SW8       30.48R
$$

COZ009-010-012-014-032>034-037-058>063-160500-
...CENTRAL COLORADO...

CITY           SKY/WX    TMP DP  RH WIND       PRES   REMARKS
ASPEN          CLOUDY    57  34  41 S5        30.19R
BUENA VISTA    FAIR      61  27  28 W6        30.18R
COPPER MTN     MOCLDY    45  23  42 NW10      30.44R
BERTHOUD PASS  FOG       32  30  93 NW24G31   30.43S VSB<1/4 WCI  19
COTTONWOOD PAS MOCLDY    57  21  24 W16G26    30.29S
GUNNISON       FAIR      52  39  61 VRB3      30.19R
KREMMLING      FAIR      59  45  58 CALM      30.22S
LEADVILLE      FAIR      50  24  36 NW5       30.29R
MONARCH PASS   MOCLDY    43  27  52 W24G30    30.52S
SALIDA         FAIR      65  31  27 W9G22     30.21R
SUNLIGHT       FAIR      41  32  70 SW6       30.39R
WILKERSON PASS CLOUDY    48  21  34 NW5       30.40R
$$

COZ069>075-160500-
...SAN LUIS VALLEY/SANGRE DE CRISTO MOUNTAINS...

CITY           SKY/WX    TMP DP  RH WIND       PRES   REMARKS
ALAMOSA        FAIR      60  35  39 CALM      30.15R
DEL NORTE      FAIR      60  29  31 W21       30.17S
LA VETA PASS   NOT AVBL
SAGUACHE       FAIR      57  34  41 NW6       30.19R
$$

COZ035-036-038>040-160500-
...NORTHERN COLORADO FRONT RANGE...

CITY           SKY/WX    TMP DP  RH WIND       PRES   REMARKS
DENVER INTL AP RAIN      57  52  83 NE9       30.05R
DMNS CITY PARK   N/A     57  55  92 N10       30.07R
AURORA         MOCLDY    57  51  80 N12       30.08R
FRONT RANGE AP MOCLDY    57  54  88 N12G22    30.06R
ERIE MUNI ARPT MOCLDY    60  55  83 S6        30.08R
BOULDER MUN AP FAIR      59  54  82 CALM      30.05R
CENTENNIAL     DRIZZLE   58  50  75 N10       30.08R
BROOMFIELD     FAIR      59  54  82 S3        30.09R
FORT COLLINS   FAIR      59  53  80 N8        30.02S
LONGMONT       FAIR      62  54  74 CALM      30.06R
$$

COZ041-046-047-076>085-087-088-160500-
...PIKES PEAK/PALMER DIVIDE AND SOUTHERN FOOTHILLS...

CITY           SKY/WX    TMP DP  RH WIND       PRES   REMARKS
COLO. SPRINGS  MOCLDY    67  48  50 N10       30.05R
A. F. ACADEMY  FAIR      61  49  65 N18G26    30.09R
SCHRIEVER AFB  MOCLDY    63  47  56 N18G31    30.06R
CHEYENNE MTN   MOCLDY    66  42  41 NW5       30.03R
ELLICOTT       MOCLDY   N/A N/A N/A N16       30.03R
FALCON         CLOUDY    58  47  67 N20G28    30.12R
FORT CARSON    FAIR      64  47  52 N5        30.00R
LIMON          FAIR      58  51  78 N29G39    30.01R
MONUMENT HILL  LGT RAIN  52  48  87 N7        30.16R
CANON CITY     MOCLDY    73  48  40 NE8       29.97R
WALSENBURG     FAIR      72  37  28 NW9       30.01R
TRINIDAD       FAIR      63  54  72 W8        29.99R
$$

COZ042>045-048>051-090-091-160500-
...NORTHEAST COLORADO...

CITY           SKY/WX    TMP DP  RH WIND       PRES   REMARKS
GREELEY ARPT   MOCLDY    60  55  83 NE8       30.00F
AKRON          FAIR      60  54  80 NW15      30.00R
BURLINGTON     FAIR      68  51  54 NW9       29.88R
WRAY           NOT AVBL
YUMA           FAIR      61  46  59 N6        29.98R
STERLING       FAIR      63  54  72 N15G22    29.94R
HOLYOKE        FAIR      63  59  88 N13       29.88F
FORT MORGAN    FAIR      60  52  75 NW18      30.01R
$$

COZ086-089-092>099-160500-
...SOUTHEAST COLORADO...

CITY           SKY/WX    TMP DP  RH WIND       PRES   REMARKS
PUEBLO         FAIR      68  51  54 N8        29.91R
LA JUNTA       FAIR      72  52  49 NW5       29.88R
LAMAR          FAIR      68  57  68 NW3       29.81R
SPRINGFIELD      N/A     72  54  53 W16G23    29.90R
$$




USA.gov is the U.S. government's official web portal to all federal, state and local government web resources and services.